Showing default

COSMOS 2272, 23003

Orbit data source: Space-Track

COSMOS 2272, 23003 is a payload satellite owned by VKS (CIS) in LEO that was launched on Sat, 12 Feb 1994 UTC via a TSIKLON-3 launch vehicle from the Plesetsk Missile And Space Complex (PKMTR). Payloads include a variety of satellites, spacecraft, and rockets equipped with specific instruments for various scientific and technological missions. These include communications satellites like Starlink; space stations such as the ISS; scientific satellites like the Hubble; Earth observation satellites from companies like Planet Labs, Umbra, and HawkEye 360; GPS; miniature CubeSats for education and research; and military/defense satellites.

Loading next visibility...
COSMOS 2272 details
Identifier
23003, 1994-011E
Orbit
LEO
Last TLE update1 day ago
Origin
Flag of CISVKS (CIS)
ManufacturerNPO PM
MissionDefense Communications
Bus & MotorSTRELA-3, Unknown motor
Mass225 kg wet, 225 kg dry
Launch date (UTC)
1994-02-12 (31 years ago)
Launch vehicle
TSIKLON-3
Launch site
Plesetsk Missile And Space Complex (PKMTR)
Object type
Payload
Rocket body
Debris
Shape & HBRCyl, 1.6 m
Radar Cross Section1.257 m², Medium (>0.1 m² and < 1m²)

Expand to show TLE details & history

TLE from 1 day ago
0 COSMOS 2272
1 23003U 94011E   25035.04719000  .00000019  00000-0  44642-4 0  9993
2 23003  82.5676 250.6742 0011179 204.8704 155.1851 12.64382979429477
Epoch: 2025-02-04T01:07Z
Definitive object data (Epoch: 2025-02-04T01:07:57.215Z)
Latitude-0.00003°
Longitude99.22771°
Altitude1,415.539 km
Speed7.149 km/s
True Right ascension16h 42m 41s
True Declination0° 00' 00"
Sunlit
Object was in daylight at TLE epoch
Visualization TLE readout
Latitude-81.45794°
Longitude-21.77547°
Altitude1,429.315 km
Speed7.148 km/s
Apparent Right ascension21h 11m 08s
Apparent Declination-72° 21' 03"
Sunlit
Object is in daylight
Visualization observer readout
Local Sidereal Time09:03:27
Azimuth181.085° SSW
Elevation-57.551°
Doppler factor1
Orbital elements
Apogee altitude1,410.922 km
Perigee altitude1,393.526 km
Semi-major axis7,780.361 km
Eccentricity0.0011179
Inclination82.5676°
RAAN250.6742°
Arg. of periapsis204.8704°
True anomaly155.23879°
Mean anomaly155.1851°
Eccentric anomaly155.21195°
Mean motion3.16259 °/min
BSTAR0.000044642
Orbital period113.83 mins
Loading maneuver chart data...
Loading historical data...
Loading historical data...
Loading historical data...
Loading historical data...
Loading historical data...
Loading historical data...
Loading historical data...

COSMOS 2272 Visibility forecast

Observer location: undefined°, undefined

Span
Click to sort rows by Start time (UTC) header in descending order
Start Az.
Max El. time (UTC)
Max El. Az.
Max El.
End time (UTC)
End Az.
11 mins2025-02-05 13:20:11.395Z126.164° SE2025-02-05 13:26:11.395Z77.362° E21.266°2025-02-05 13:31:11.395Z37.31° NE
14 mins2025-02-05 15:13:11.395Z198.327° SSW2025-02-05 15:20:11.395Z297.265° NW43.053°2025-02-05 15:27:11.395Z2.118° NNE
5 mins2025-02-05 17:14:11.395Z285.183° WNW2025-02-05 17:16:11.395Z300.078° NW12.422°2025-02-05 17:19:11.395Z322.105° NNW
14 mins2025-02-06 01:14:11.395Z8.589° NNE2025-02-06 01:20:11.395Z72.922° E36.554°2025-02-06 01:28:11.395Z148.636° SSE
12 mins2025-02-06 03:09:11.395Z328.86° NNW2025-02-06 03:15:11.395Z269.92° W29.386°2025-02-06 03:21:11.395Z217.221° SW
|